Regional Weather Roundup
Issued by NWS

Home | Current Version | Previous Version | Text Only | Print | Product List | Glossary Off
Versions: 1 2 3 4 5 6 7 8 9 10 11 12 13 14 15 16 17 18 19 20 21 22 23 24 25 26 27

000
ASUS45 KPSR 051110
RWRAZ

ARIZONA HOURLY REGIONAL WEATHER ROUNDUP
NATIONAL WEATHER SERVICE PHOENIX AZ
400 AM MST MON DEC 05 2016

NOTE: FAIR INDICATES FEW OR NO CLOUDS BELOW 12,000 FEET WITH NO
SIGNIFICANT WEATHER AND/OR OBSTRUCTIONS TO VISIBILITY.

AZZ001>003-036-051200-
NORTHWEST ARIZONA

CITY           SKY/WX    TMP DP  RH WIND       PRES   REMARKS
BULLHEAD CITY  MOCLDY    45  25  45 CALM      29.91R
KINGMAN        PTCLDY    39  11  31 E3        29.92S
$$

AZZ004>008-015-016-018-051200-
NORTH CENTRAL ARIZONA

CITY           SKY/WX    TMP DP  RH WIND       PRES   REMARKS
GRAND CANYON   PTCLDY    19  16  88 VRB3      29.97F
PRESCOTT       PTCLDY    33  20  58 S5        29.96F WCI  29
FLAGSTAFF      CLEAR     23  16  74 CALM      29.98F
PAYSON         MOCLDY    37  16  41 CALM      30.01F
PAGE           CLEAR     33  15  47 CALM      29.91F
$$

AZZ009>014-017-051200-
NORTHEAST ARIZONA

CITY           SKY/WX    TMP DP  RH WIND       PRES   REMARKS
WINSLOW        MOCLDY    28  16  60 SE9       29.94F WCI  19
SAINT JOHNS    PTCLDY    21  14  74 S3        29.96F
WINDOW ROCK    CLEAR     19  14  81 CALM      29.97F
SHOW LOW       PTCLDY    34  10  37 S12       29.99F WCI  25
$$

AZZ023-051200-
GREATER PHOENIX AREA

CITY           SKY/WX    TMP DP  RH WIND       PRES   REMARKS
PHOENIX        MOCLDY    47  26  44 E5        29.92F
BUCKEYE        MOCLDY    37  30  75 W5        29.93F WCI  34
LUKE AFB       MOCLDY    42  29  59 NE5       29.92F
DEER VALLEY    MOCLDY    46  21  37 NE5       29.92F
SCOTTSDALE     MOCLDY    44  30  57 CALM      29.93F
MESA-GATEWAY   PTCLDY    41  25  52 SE5       29.94F
$$

AZZ027-028-051200-
SOUTHWEST MARICOPA COUNTY AND PINAL COUNTY

CITY           SKY/WX    TMP DP  RH WIND       PRES   REMARKS
CASA GRANDE    NOT AVBL
$$

AZZ503-504-507>509-051200-
SOUTHEAST ARIZONA

CITY           SKY/WX    TMP DP  RH WIND       PRES   REMARKS
TUCSON         CLEAR     44  23  43 SE12      29.96F
DAVIS-MONTHAN  PTCLDY    42  21  43 S10       29.95F
NOGALES        CLEAR     32  23  69 S5        29.99F WCI  27
SIERRA VISTA   CLEAR     36  16  43 S8        30.00F WCI  30
DOUGLAS        CLEAR     24  22  91 CALM      30.02F
SAFFORD        CLEAR     32  24  72 S8        29.95F WCI  25
$$

AZZ020-021-025-026-031-051200-
SOUTHWEST ARIZONA

CITY           SKY/WX    TMP DP  RH WIND       PRES   REMARKS
YUMA           PTCLDY    47  23  38 E3        29.88F
$$

CAZ031-033-041-043-047-048-061-051200-
SOUTHERN CALIFORNIA

CITY           SKY/WX    TMP DP  RH WIND       PRES   REMARKS
DOWNTOWN L.A.  CLEAR     49  43  80 CALM      29.96S
L.A. AIRPORT   FOG       51  51 100 CALM      29.96S VSB 1/4
SAN DIEGO      MOCLDY    54  52  93 CALM      29.98F
BURBANK        CLEAR     46  28  49 CALM      29.95F
ONTARIO        CLEAR     47  34  60 NE3       29.95F
RIVERSIDE      CLEAR     48  36  63 NE6       29.96F
PALM SPRINGS   MOCLDY    50  31  48 CALM      29.88F
EL CENTRO NAS  CLEAR     45  17  32 CALM      29.89F
IMPERIAL       CLEAR     45  21  38 CALM      29.87F
BLYTHE         CLEAR     43  19  38 CALM      29.89F
NEEDLES        MOCLDY    48  14  25 NW3       29.88F
$$

NVZ020-UTZ003-051200-
SOUTHERN NEVADA-UTAH

CITY           SKY/WX    TMP DP  RH WIND       PRES   REMARKS
LAS VEGAS      MOCLDY    43  15  32 S6        29.92S
SALT LAKE CITY CLOUDY    36  27  69 NW30      29.86R WCI  23
$$

NMZ009-TXZ055-051200-
NEW MEXICO-WEST TEXAS

CITY           SKY/WX    TMP DP  RH WIND       PRES   REMARKS
ALBUQUERQUE    CLOUDY    27  13  55 SE8       29.96F WCI  19
EL PASO        CLEAR     37  32  82 SE3       29.96F
$$


........................KEY........................
SKY/WX - SKY CONDITION/WEATHER
TMP    - TEMPERATURE IN FAHRENHEIT
DP     - DEW POINT IN FAHRENHEIT
RH     - RELATIVE HUMIDITY IN PERCENT
WIND   - DIRECTION AND SPEED IN MILES PER HOUR (MPH)
VRB    - VARIABLE WIND DIRECTION
PRES   - MEAN SEA LEVEL PRESSURE IN INCHES OF MERCURY
         F - FALLING PRESSURE   R - RISING PRESSURE
         S - STEADY PRESSURE
VSB    - VISIBILITY IN MILES
HX     - HEAT INDEX IN FAHRENHEIT
WCI    - WIND CHILL INDEX IN FAHRENHEIT
TC     - TEMPERATURE IN CELSIUS WHICH IS ALSO KNOWN AS
         TEMPERATURE IN CENTIGRADE
AFB    - AIR FORCE BASE
         LUKE AFB IS LUKE AIR FORCE BASE
         DAVIS-MONTHAN IS DAVIS-MONTHAN AIR FORCE BASE
NAS    - NAVAL AIR STATION
         EL CENTRO NAS IS EL CENTRO NAVAL AIR STATION
N/A    - NOT AVAILABLE





USA.gov is the U.S. government's official web portal to all federal, state and local government web resources and services.